GW7137 Weather Reports


time (UTC)temp
C
wind
direction
speed
KPH
gust
KPH
rain 1hr
cm
rain 24hr
cm
rain mn
cm
humidity
%
barometer
mb
20260508065043 16 324 3.2 3.2 0.00 0.00 0.00 81 1016.4
20260508064541 16 324 0.0 0.0 0.00 0.00 0.00 81 1016.4
20260508064028 16 324 0.0 0.0 0.00 0.00 0.00 80 1016.5
20260508063528 16 324 0.0 0.0 0.00 0.00 0.00 77 1016.6
20260508063016 16 354 3.2 3.2 0.00 0.00 0.00 76 1016.6
20260508062504 16 42 3.2 3.2 0.00 0.00 0.00 76 1016.6
20260508062003 16 320 3.2 3.2 0.00 0.00 0.00 75 1016.7
20260508061451 16 306 0.0 0.0 0.00 0.00 0.00 75 1016.8
20260508060951 16 306 3.2 3.2 0.00 0.00 0.00 76 1016.7
20260508060439 16 186 3.2 3.2 0.00 0.00 0.00 76 1016.9
20260508055940 16 168 0.0 0.0 0.00 0.00 0.00 77 1016.8
20260508055427 16 222 8.0 8.0 0.00 0.00 0.00 75 1016.9
20260508054914 16 210 0.0 0.0 0.00 0.00 0.00 71 1016.8
20260508054414 16 276 0.0 0.0 0.00 0.00 0.00 71 1016.7
20260508053901 16 23 0.0 0.0 0.00 0.00 0.00 73 1016.7
20260508053401 16 23 3.2 3.2 0.00 0.00 0.00 71 1016.8
20260508052848 16 282 6.4 6.4 0.00 0.00 0.00 71 1017.0
20260508052348 16 330 3.2 3.2 0.00 0.00 0.00 75 1017.0
20260508051836 15 318 0.0 0.0 0.00 0.00 0.00 79 1017.3
20260508051324 15 318 0.0 0.0 0.00 0.00 0.00 80 1017.2
20260508050824 15 318 3.2 3.2 0.00 0.00 0.00 80 1017.0
20260508050312 15 318 0.0 0.0 0.00 0.00 0.00 79 1016.7
20260508045812 15 318 0.0 0.0 0.00 0.00 0.00 81 1016.3
20260508045259 15 318 0.0 0.0 0.00 0.00 0.00 81 1015.9
20260508044759 15 318 0.0 0.0 0.00 0.00 0.00 81 1015.8
20260508044246 15 318 3.2 3.2 0.00 0.00 0.00 83 1015.6
20260508043746 15 318 0.0 0.0 0.00 0.00 0.00 83 1015.5
20260508043234 15 318 0.0 0.0 0.00 0.00 0.00 83 1015.4
20260508042721 15 318 3.2 3.2 0.00 0.00 0.00 83 1015.3
20260508042221 15 318 3.2 3.2 0.00 0.00 0.00 83 1015.4
20260508041709 15 318 0.0 0.0 0.00 0.00 0.00 82 1015.3
20260508041209 15 318 0.0 0.0 0.00 0.00 0.00 81 1015.2
20260508040658 15 318 3.2 3.2 0.00 0.00 0.00 82 1015.2
20260508040157 15 318 0.0 0.0 0.00 0.00 0.00 80 1015.2
20260508035645 15 318 0.0 0.0 0.00 0.00 0.00 79 1015.1
20260508035132 14 318 3.2 3.2 0.00 0.00 0.00 78 1015.1
20260508034631 14 318 3.2 3.2 0.00 0.00 0.00 79 1015.0
20260508034119 14 312 3.2 3.2 0.00 0.00 0.00 79 1014.9
20260508033618 15 312 3.2 3.2 0.00 0.00 0.00 78 1015.0
20260508033106 15 312 0.0 0.0 0.00 0.00 0.00 78 1014.9
20260508032606 15 336 3.2 3.2 0.00 0.00 0.00 78 1014.8
20260508032054 15 318 0.0 0.0 0.00 0.00 0.00 78 1014.8
20260508031554 15 318 3.2 3.2 0.00 0.00 0.00 77 1014.9
20260508031041 15 0 3.2 3.2 0.00 0.00 0.00 78 1014.9
20260508030529 15 66 3.2 3.2 0.00 0.00 0.00 77 1014.8
20260508030030 15 312 3.2 3.2 0.00 0.00 0.00 78 1014.8
20260508025517 15 300 3.2 3.2 0.00 0.00 0.00 77 1014.7
20260508025016 15 300 3.2 3.2 0.00 0.00 0.00 78 1014.7
20260508024543 15 300 3.2 3.2 0.00 0.00 0.00 79 1014.7
20260508024044 15 300 3.2 3.2 0.00 0.00 0.00 78 1014.8
20260508023531 15 300 4.8 4.8 0.00 0.00 0.00 79 1014.8
20260508023018 15 300 3.2 3.2 0.00 0.00 0.00 79 1014.8
20260508022518 15 300 0.0 0.0 0.00 0.00 0.00 80 1014.9
20260508022006 15 300 3.2 3.2 0.00 0.00 0.00 77 1015.1
20260508021506 15 300 3.2 3.2 0.00 0.00 0.00 78 1015.1
20260508020954 15 300 0.0 0.0 0.00 0.00 0.00 79 1015.1
20260508020453 15 300 0.0 0.0 0.00 0.00 0.00 78 1015.1
20260508015940 15 300 3.2 3.2 0.00 0.00 0.00 79 1015.1
20260508015441 15 300 3.2 3.2 0.00 0.00 0.00 78 1015.1
20260508014929 15 300 3.2 3.2 0.00 0.00 0.00 78 1015.1
20260508014416 15 300 0.0 0.0 0.00 0.00 0.00 77 1015.0
20260508013915 15 324 3.2 3.2 0.00 0.00 0.00 77 1015.1
20260508013323 15 24 3.2 3.2 0.00 0.00 0.00 77 1014.8
20260508012824 15 330 3.2 3.2 0.00 0.00 0.00 77 1014.9
20260508012311 15 306 3.2 3.2 0.00 0.00 0.00 81 1015.0
20260508011812 15 306 3.2 3.2 0.00 0.00 0.00 81 1015.1
20260508011300 15 306 0.0 0.0 0.00 0.00 0.00 81 1015.2
20260508010747 15 306 3.2 3.2 0.00 0.00 0.00 79 1015.2
20260508010247 15 306 3.2 3.2 0.00 0.00 0.00 79 1015.1
20260508005734 14 306 0.0 0.0 0.00 0.00 0.00 80 1015.1
20260508005234 14 306 3.2 3.2 0.00 0.00 0.00 81 1015.1
20260508004721 14 306 3.2 3.2 0.00 0.00 0.00 81 1015.1
20260508004222 14 306 0.0 0.0 0.00 0.00 0.00 82 1015.2
20260508003708 14 306 3.2 3.2 0.00 0.00 0.00 82 1015.2
20260508003210 14 306 3.2 3.2 0.00 0.00 0.00 82 1015.4
20260508002657 14 306 3.2 3.2 0.00 0.00 0.00 81 1015.5
20260508002157 14 306 3.2 3.2 0.00 0.00 0.00 81 1015.5
20260508001656 14 306 3.2 3.2 0.00 0.00 0.00 81 1015.5
20260508001156 14 306 3.2 3.2 0.00 0.00 0.00 81 1015.6
20260508000657 14 306 3.2 3.2 0.00 0.00 0.00 83 1015.7
20260508000144 14 306 3.2 3.2 0.00 0.00 0.00 81 1015.8
20260507235644 14 306 3.2 3.2 0.00 0.00 0.00 81 1015.8
20260507235211 14 306 4.8 4.8 0.00 0.00 0.00 82 1015.8
20260507234711 14 306 3.2 3.2 0.00 0.00 0.00 81 1015.9
20260507234159 15 324 0.0 0.0 0.00 0.00 0.00 81 1015.9
20260507233658 14 330 3.2 3.2 0.00 0.00 0.00 80 1015.8
20260507233145 14 312 3.2 3.2 0.00 0.00 0.00 83 1015.9
20260507232633 14 312 3.2 3.2 0.00 0.00 0.00 82 1016.1
20260507232134 14 312 3.2 3.2 0.00 0.00 0.00 82 1016.2
20260507231621 14 312 3.2 3.2 0.00 0.00 0.00 82 1016.3
20260507231120 14 312 3.2 3.2 0.00 0.00 0.00 83 1016.2
20260507230529 14 312 3.2 3.2 0.00 0.00 0.00 82 1016.2
20260507230029 14 312 3.2 3.2 0.00 0.00 0.00 82 1016.2
20260507225516 15 312 3.2 3.2 0.00 0.00 0.00 81 1016.3
20260507225019 14 318 3.2 3.2 0.00 0.00 0.00 82 1016.3
20260507224505 15 314 3.2 3.2 0.00 0.00 0.00 81 1016.4
20260507223952 14 318 3.2 3.2 0.00 0.00 0.00 81 1016.5
20260507223452 15 306 4.8 4.8 0.00 0.00 0.00 82 1016.5
20260507222939 15 306 3.2 3.2 0.00 0.00 0.00 80 1016.4
20260507222439 15 319 3.2 3.2 0.00 0.00 0.00 81 1016.4
20260507221926 14 312 4.8 4.8 0.00 0.00 0.00 81 1016.5
20260507221427 15 312 3.2 3.2 0.00 0.00 0.00 80 1016.4
20260507220914 15 318 3.2 3.2 0.00 0.00 0.00 80 1016.4
20260507220418 15 318 3.2 3.2 0.00 0.00 0.00 79 1016.5
20260507215903 15 318 0.0 0.0 0.00 0.00 0.00 79 1016.4
20260507215352 15 318 3.2 3.2 0.00 0.00 0.00 79 1016.4
20260507214849 15 318 3.2 3.2 0.00 0.00 0.00 78 1016.4
20260507214337 15 342 3.2 3.2 0.00 0.00 0.00 78 1016.5
20260507213837 16 11 3.2 3.2 0.00 0.00 0.00 76 1016.7
20260507213325 16 26 3.2 3.2 0.00 0.00 0.00 75 1016.7
20260507212826 16 60 0.0 0.0 0.00 0.00 0.00 74 1016.7
20260507212313 16 14 0.0 0.0 0.00 0.00 0.00 75 1016.7
20260507211800 16 318 3.2 3.2 0.00 0.00 0.00 75 1016.7
20260507211301 16 330 3.2 3.2 0.00 0.00 0.00 75 1016.7
20260507210749 16 352 3.2 3.2 0.00 0.00 0.00 74 1016.8
20260507210254 16 348 3.2 3.2 0.00 0.00 0.00 74 1016.8
20260507205739 16 330 3.2 3.2 0.00 0.00 0.00 74 1016.9
20260507205236 16 319 3.2 3.2 0.00 0.00 0.00 74 1016.8
20260507204725 16 318 0.0 0.0 0.00 0.00 0.00 75 1016.8
20260507204212 16 300 3.2 3.2 0.00 0.00 0.00 75 1016.9
20260507203712 16 312 3.2 3.2 0.00 0.00 0.00 75 1016.8
20260507203201 16 330 3.2 3.2 0.00 0.00 0.00 74 1016.8
20260507202703 16 330 0.0 0.0 0.00 0.00 0.00 75 1016.9
20260507202147 16 330 3.2 3.2 0.00 0.00 0.00 73 1016.9
20260507201652 16 335 3.2 3.2 0.00 0.00 0.00 73 1016.8
20260507201136 16 318 3.2 3.2 0.00 0.00 0.00 74 1016.8
20260507200624 16 324 3.2 3.2 0.00 0.00 0.00 73 1016.8
20260507200128 16 336 3.2 3.2 0.00 0.00 0.00 73 1016.9
20260507195609 16 348 3.2 3.2 0.00 0.00 0.00 72 1016.9
20260507195107 16 324 3.2 3.2 0.00 0.00 0.00 73 1016.9
20260507194557 16 330 3.2 3.2 0.00 0.00 0.00 72 1016.8
20260507194107 16 346 6.4 8.0 0.00 0.00 0.00 73 1016.9
20260507193601 16 318 6.4 6.4 0.00 0.00 0.00 73 1016.9
20260507193101 16 318 3.2 3.2 0.00 0.00 0.00 73 1016.9
20260507192541 16 318 3.2 3.2 0.00 0.00 0.00 73 1016.8
20260507192020 16 318 3.2 3.2 0.00 0.00 0.00 73 1016.8
20260507191526 16 318 3.2 3.2 0.00 0.00 0.00 73 1016.8
20260507191007 16 318 4.8 4.8 0.00 0.00 0.00 73 1016.7
20260507190515 16 318 3.2 3.2 0.00 0.00 0.00 72 1016.7
20260507185958 16 318 3.2 3.2 0.00 0.00 0.00 73 1016.7
20260507185453 17 325 6.4 6.4 0.00 0.00 0.00 72 1016.6
20260507184945 17 318 3.2 3.2 0.00 0.00 0.00 72 1016.6
20260507184432 17 318 0.0 0.0 0.00 0.00 0.00 72 1016.5
20260507183932 17 330 0.0 0.0 0.00 0.00 0.00 72 1016.4
20260507183418 17 346 0.0 0.0 0.00 0.00 0.00 72 1016.3
20260507182922 17 336 3.2 3.2 0.00 0.00 0.00 72 1016.4
20260507182411 17 312 3.2 3.2 0.00 0.00 0.00 73 1016.4
20260507181902 17 342 3.2 3.2 0.00 0.00 0.00 72 1016.4
20260507181351 17 12 3.2 3.2 0.00 0.00 0.00 72 1016.4
20260507180841 17 19 3.2 3.2 0.00 0.00 0.00 72 1016.4
20260507180341 17 27 3.2 3.2 0.00 0.00 0.00 71 1016.3
20260507175826 17 33 3.2 3.2 0.00 0.00 0.00 69 1016.2
20260507175330 17 36 3.2 3.2 0.00 0.00 0.00 69 1016.1
20260507174814 17 25 3.2 3.2 0.00 0.00 0.00 68 1016.2
20260507174412 17 36 3.2 3.2 0.00 0.00 0.00 67 1016.3